DELTA 1 DEB, 7151

Orbit data source: Space-Track

DELTA 1 DEB, 7151 is space debris in SSO originally from a launch on Tue, 06 Nov 1973 UTC launched from the Air Force Western Test Range (AFWTR). Debris objects in space refer to the collection of defunct objects orbiting the Earth. Examples of debris include non-operational satellites, rocket bodies, and fragments generated from explosions, collisions, or faulty payload assembly.

Loading next visibility...
Identifier
7151, 1973-086DR
Orbit
SSO
Country
Flag of USUS
Related business
Manufacturer
Unknown
Mission
Spacecraft
Bus & Motor
Unknown
Mass
Unknown
Launch date (UTC)
1973-11-06 (53 years ago)
Launch vehicle
Unknown
Launch site
Air Force Western Test Range (AFWTR)
Object type
Payload
Rocket body
Debris
Shape & HBR
Unknown shape, 0.1 m
Radar Cross Section
Medium (>0.1 m² and <1 m²)

Expand to show TLE details & history
Last TLE update: 2 days ago

TLE from 2 days ago
0 DELTA 1 DEB
1 07151U 73086DR  26220.30651718 -.00000009  00000-0  35280-3 0  9992
2 07151 102.7731 351.3643 0153848   6.0731  50.3442 12.17912780340720
Epoch: 2026-08-08T07:21Z
TLE epoch observation values (Epoch: 2026-08-08T07:21:23.084Z)
Latitude
55.70054°
Longitude
-95.1138°
Altitude
1,533.429 km
Speed
7.139 km/s
True Right ascension
22h 08m 12s
True Declination
55° 33' 22"
Sunlit
Object was in daylight at epoch
Visualization orbit readout
Latitude
Unknown
Longitude
Unknown
Altitude
Unknown
Speed
Unknown
Apparent Right ascension
Unknown
Apparent Declination
Unknown
Sunlit
N/A
Visualization observer readout
Local Sidereal Time
16:46:23
Azimuth
Unknown
Elevation
Unknown
Doppler factor
Unknown
Orbital elements
Apogee altitude
1,722.026 km
Perigee altitude
1,476.564 km
Semi-major axis
7,977.432 km
Eccentricity
0.01538
Inclination
102.7731°
RAAN
351.3643°
Arg. of periapsis
6.0731°
True anomaly
51.71822°
Mean anomaly
50.3442°
Eccentric anomaly
51.02953°
Mean motion
3.04613 °/min
Orbital period
118.18 mins
BSTAR
0.0003528
Loading maneuver chart data...
Computing Atmospheric mass density...
Loading historical data...
Loading historical data...
Loading historical data...
Loading historical data...
Loading historical data...
Loading historical data...
Loading historical data...

Documentation

Showing up to 5 results
|